Iowa City, IA

5:55 AM CDT on October 17, 2019 (GMT -0500)
Iowa City Municipal

Weather History for KIOW - July, 2019

Change the Weather History Date:

Tuesday, July 16, 2019

  Actual Average Record
Temperature  
Mean Temperature 80 °F 75 °F  
Max Temperature 90 °F 85 °F 102 °F (1988)
Min Temperature 69 °F 65 °F 50 °F (2014)
Degree Days  
Heating Degree Days 0 0  
Month to date heating degree days 0 0  
Since 1 June heating degree days 6 17  
Since 1 July heating degree days 0 0  
Cooling Degree Days 15 10  
Month to date cooling degree days 241 160  
Year to date cooling degree days 485 432  
Since 1 June cooling degree days 439 371  
Growing Degree Days 30 (Base 50)    
Moisture  
Dew Point 69 °F    
Average Humidity 73    
Maximum Humidity 93    
Minimum Humidity 52    
Precipitation  
Precipitation 0.01 in 0.19 in 1.20 in (1992)
Month to date precipitation 0.31 2.88  
Year to date precipitation 24.04 19.58  
Sea Level Pressure  
Sea Level Pressure 29.91 in    
Wind  
Wind Speed 4 mph (South)    
Max Wind Speed 9 mph    
Max Gust Speed 14 mph    
Visibility 8 miles    
Events      
T = Trace of Precipitation, MM = Missing Value Source: NWS Daily Summary

Daily Weather History Graph

Daily Weather History Graph

Search for Another Location

Airport or City:

Astronomy

Jul. 16, 2019 Rise Set
Actual Time 5:45 AM CDT 8:38 PM CDT
Civil Twilight 5:12 AM CDT 9:11 PM CDT
Nautical Twilight 4:31 AM CDT 9:52 PM CDT
Astronomical Twilight 3:42 AM CDT 10:40 PM CDT
Moon 8:44 PM CDT (7/16) 5:23 AM CDT (7/16)
Length of Visible Light 15h 58m
Length of Day
14h 52m
Full, 100% of the Moon is Illuminated
Jul 16
Full
Jul 16
Full
Jul 24
Last Quarter
Jul 31
New
Aug 7
First Quarter

Hourly Weather History & Observations

Time (CDT) Temp. Heat Index Dew Point Humidity Pressure Visibility Wind Dir Wind Speed Gust Speed Precip Events Conditions
12:52 AM 72.0 °F - 66.9 °F 84% 29.93 in 10.0 mi SE 5.8 mph - N/A   Clear
1:52 AM 72.0 °F - 66.0 °F 81% 29.91 in 10.0 mi SE 8.1 mph - N/A   Clear
2:52 AM 72.0 °F - 66.9 °F 84% 29.93 in 10.0 mi East 3.5 mph - N/A   Clear
3:52 AM 71.1 °F - 66.9 °F 87% 29.92 in 10.0 mi Calm Calm - N/A   Clear
4:52 AM 70.0 °F - 66.0 °F 87% 29.90 in 10.0 mi SSE 5.8 mph - N/A   Scattered Clouds
5:00 AM 70.0 °F - 66.9 °F 90% 29.92 in 10.0 mi ESE 3.5 mph - N/A   Mostly Cloudy
5:50 AM 71.6 °F - 66.2 °F 83% 29.91 in 10.0 mi South 4.6 mph - N/A   Overcast
5:52 AM 71.1 °F - 66.9 °F 87% 29.89 in 10.0 mi South 5.8 mph - N/A   Overcast
6:13 AM 71.1 °F - 68.0 °F 90% 29.90 in 6.0 mi South 8.1 mph - N/A   Overcast
6:52 AM 71.1 °F - 69.1 °F 93% 29.90 in 3.0 mi SW 8.1 mph - N/A   Overcast
6:56 AM 71.1 °F - 69.1 °F 93% 29.91 in 1.8 mi WSW 6.9 mph - N/A   Overcast
7:03 AM 71.1 °F - 69.1 °F 93% 29.91 in 0.8 mi SW 5.8 mph - N/A   Overcast
7:24 AM 71.1 °F - 69.1 °F 93% 29.91 in 1.2 mi West 8.1 mph - N/A   Overcast
7:32 AM 71.1 °F - 68.0 °F 90% 29.92 in 3.0 mi West 8.1 mph - N/A   Overcast
7:52 AM 71.1 °F - 69.1 °F 93% 29.90 in 2.5 mi South 3.5 mph - N/A   Overcast
8:10 AM 71.1 °F - 69.1 °F 93% 29.92 in 6.0 mi Calm Calm - N/A   Overcast
8:52 AM 73.0 °F - 69.1 °F 87% 29.93 in 10.0 mi SSE 3.5 mph - N/A   Overcast
9:01 AM 73.0 °F - 69.1 °F 87% 29.95 in 10.0 mi Calm Calm - N/A   Overcast
9:26 AM 73.9 °F - 69.1 °F 85% 29.94 in 10.0 mi SE 5.8 mph - N/A   Overcast
9:52 AM 75.0 °F - 69.1 °F 82% 29.94 in 10.0 mi Calm Calm - N/A   Overcast
10:13 AM 75.0 °F - 69.1 °F 82% 29.97 in 10.0 mi Calm Calm - N/A   Overcast
10:52 AM 77.0 °F - 69.1 °F 76% 29.95 in 10.0 mi WSW 3.5 mph - N/A   Overcast
11:34 AM 78.1 °F - 69.1 °F 74% 29.95 in 10.0 mi West 5.8 mph - N/A   Overcast
11:52 AM 80.1 °F 82.9 °F 69.1 °F 69% 29.93 in 10.0 mi ESE 4.6 mph - N/A   Mostly Cloudy
12:04 PM 81.0 °F 84.1 °F 69.1 °F 67% 29.94 in 10.0 mi East 5.8 mph - N/A   Scattered Clouds
12:52 PM 82.9 °F 86.5 °F 69.1 °F 63% 29.91 in 10.0 mi North - - N/A   Partly Cloudy
1:52 PM 86.0 °F 90.1 °F 69.1 °F 57% 29.89 in 10.0 mi ESE 6.9 mph - N/A   Partly Cloudy
2:52 PM 88.0 °F 92.9 °F 70.0 °F 55% 29.86 in 10.0 mi ENE 8.1 mph - N/A   Clear
3:52 PM 90.0 °F 95.4 °F 70.0 °F 52% 29.86 in 10.0 mi North - - N/A   Clear
4:52 PM 88.0 °F 92.1 °F 69.1 °F 53% 29.86 in 10.0 mi Calm Calm - N/A   Mostly Cloudy
5:52 PM 88.0 °F 92.9 °F 70.0 °F 55% 29.86 in 10.0 mi South 4.6 mph - N/A   Mostly Cloudy
6:52 PM 88.0 °F 92.1 °F 69.1 °F 53% 29.86 in 10.0 mi SE 5.8 mph - N/A   Scattered Clouds
7:52 PM 86.0 °F 90.1 °F 69.1 °F 57% 29.88 in 10.0 mi East 3.5 mph - N/A   Scattered Clouds
8:52 PM 82.9 °F 88.0 °F 72.0 °F 69% 29.89 in 10.0 mi WSW 8.1 mph - 0.00 in   Mostly Cloudy
9:52 PM 78.1 °F - 72.0 °F 81% 29.89 in 10.0 mi West 3.5 mph - 0.01 in   Scattered Clouds
10:52 PM 77.0 °F - 72.0 °F 84% 29.89 in 10.0 mi Calm Calm - N/A   Mostly Cloudy
11:52 PM 77.0 °F - 72.0 °F 84% 29.90 in 10.0 mi NNW 4.6 mph - N/A   Scattered Clouds